Satellite-Ground Cal/Val Region Overpasses Predictions

Prediction of Satellite NPP Overpassing Cal/Val Region: PacNW

Region Location: (Latitude: 10.00, Longitude: 139.50) to (Latitude: 22.70, Longitude: 165.60).

Table of predicted overpasses for the next 14.0 days since TLE Epoch: 10/10/2013
Interval Starting Time Starting Location Ending Time Ending Location
1 10/10/2013 14:59:36 ( 22.67, 160.23) 10/10/2013 15:03:11 ( 10.05, 157.22)
2 10/11/2013 02:11:17 ( 19.14, 165.60) 10/11/2013 02:12:17 ( 22.65, 164.73)
3 10/11/2013 03:50:12 ( 10.04, 142.36) 10/11/2013 03:53:36 ( 22.01, 139.51)
4 10/11/2013 14:40:35 ( 22.68, 165.00) 10/11/2013 14:44:11 ( 10.00, 161.97)
5 10/11/2013 16:22:05 ( 22.68, 139.62) 10/11/2013 16:22:13 ( 22.21, 139.50)
6 10/12/2013 03:31:10 ( 10.02, 147.12) 10/12/2013 03:34:45 ( 22.65, 144.11)
7 10/12/2013 16:03:03 ( 22.69, 144.38) 10/12/2013 16:06:39 ( 10.01, 141.36)
8 10/13/2013 03:12:09 ( 10.01, 151.88) 10/13/2013 03:15:45 ( 22.69, 148.86)
9 10/13/2013 15:44:03 ( 22.65, 149.13) 10/13/2013 15:47:38 ( 10.03, 146.12)
10 10/14/2013 02:53:08 ( 10.00, 156.65) 10/14/2013 02:56:44 ( 22.68, 153.62)
11 10/14/2013 15:25:01 ( 22.66, 153.89) 10/14/2013 15:28:36 ( 10.04, 150.88)
12 10/15/2013 02:34:07 ( 10.05, 161.39) 10/15/2013 02:37:42 ( 22.67, 158.38)
13 10/15/2013 15:06:00 ( 22.67, 158.65) 10/15/2013 15:09:35 ( 10.05, 155.64)
14 10/16/2013 02:15:47 ( 12.45, 165.60) 10/16/2013 02:18:41 ( 22.66, 163.14)
15 10/16/2013 03:56:36 ( 10.04, 140.78) 10/16/2013 03:58:09 ( 15.51, 139.51)
16 10/16/2013 14:46:58 ( 22.68, 163.41) 10/16/2013 14:50:33 ( 10.06, 160.40)
17 10/17/2013 03:37:34 ( 10.04, 145.54) 10/17/2013 03:41:09 ( 22.66, 142.53)
18 10/17/2013 14:31:00 ( 11.95, 165.60) 10/17/2013 14:31:33 ( 10.01, 165.15)
19 10/17/2013 16:09:27 ( 22.68, 142.80) 10/17/2013 16:13:03 ( 10.00, 139.78)
20 10/18/2013 03:18:33 ( 10.03, 150.30) 10/18/2013 03:22:08 ( 22.65, 147.29)
21 10/18/2013 15:50:25 ( 22.69, 147.56) 10/18/2013 15:54:01 ( 10.01, 144.54)
22 10/19/2013 02:59:31 ( 10.02, 155.06) 10/19/2013 03:03:06 ( 22.64, 152.05)
23 10/19/2013 15:31:24 ( 22.70, 152.32) 10/19/2013 15:35:00 ( 10.02, 149.30)
24 10/20/2013 02:40:30 ( 10.01, 159.82) 10/20/2013 02:44:06 ( 22.70, 156.80)
25 10/20/2013 15:12:24 ( 22.64, 157.07) 10/20/2013 15:15:59 ( 10.03, 154.06)
26 10/21/2013 02:21:28 ( 10.01, 164.58) 10/21/2013 02:25:04 ( 22.69, 161.56)
27 10/21/2013 14:53:22 ( 22.65, 161.83) 10/21/2013 14:56:57 ( 10.03, 158.82)
28 10/22/2013 03:43:57 ( 10.01, 143.97) 10/22/2013 03:47:33 ( 22.69, 140.94)
29 10/22/2013 14:35:30 ( 18.61, 165.59) 10/22/2013 14:37:56 ( 10.04, 163.58)
30 10/22/2013 16:15:51 ( 22.65, 141.21) 10/22/2013 16:17:51 ( 15.61, 139.50)
31 10/23/2013 03:24:55 ( 10.00, 148.73) 10/23/2013 03:28:31 ( 22.69, 145.70)
32 10/23/2013 15:56:49 ( 22.66, 145.97) 10/23/2013 16:00:24 ( 10.04, 142.96)


NCC Satellite Cal/Val Overpasses Prediction Service
